Weather History for Latrobe, PA

Change the Weather History Date:

Wednesday, September 3, 2014

  Actual Average Record
Temperature  
Mean Temperature 71 °F -  
Max Temperature 80 °F 78 °F 93 °F (1999)
Min Temperature 62 °F 56 °F 46 °F (1998)
Cooling Degree Days 6    
Growing Degree Days 21 (Base 50)    
Moisture  
Dew Point 65 °F    
Average Humidity 90    
Maximum Humidity 100    
Minimum Humidity 54    
Precipitation  
Precipitation 0.00 in - - ()
Sea Level Pressure  
Sea Level Pressure 30.07 in    
Wind  
Wind Speed 1 mph (SSW)    
Max Wind Speed 6 mph    
Max Gust Speed -    
Visibility 11 miles    
Events      
Averages and records for this station are not official NWS values.
T = Trace of Precipitation, MM = Missing Value Source: NWS Daily Summary

Daily Weather History Graph

Daily Weather History Graph

Search for Another Location

Airport:

Trip Planner

Search our weather history database for the weather conditions in past years. The results will help you decide how hot, cold, wet, or windy it might be!

Date:

Astronomy

Sep. 03, 2014 Rise Set
Actual Time 6:47 AM EDT 7:46 PM EDT
Civil Twilight 6:19 AM EDT 8:13 PM EDT
Nautical Twilight 5:46 AM EDT 8:46 PM EDT
Astronomical Twilight 5:11 AM EDT 9:21 PM EDT
Moon 3:26 PM EDT (9/3) 12:39 AM EDT (9/3)
Length of Visible Light 13h 54m
Length of Day
12h 59m
Waxing Gibbous, 63% of the Moon is Illuminated
Sep 3
Waxing Gibbous
Sep 8
Full
Sep 15
Last Quarter
Sep 24
New
Oct 1
First Quarter

Hourly Weather History & Observations

Time (EDT) Temp. Heat Index Dew Point Humidity Pressure Visibility Wind Dir Wind Speed Gust Speed Precip Events Conditions
12:15 AM 68.0 °F - 68.0 °F 100% 30.01 in 10.0 mi Calm Calm - 0.00 in   Clear
12:35 AM 68.0 °F - 68.0 °F 100% 30.01 in 10.0 mi South 4.6 mph - 0.00 in   Clear
12:55 AM 66.2 °F - 66.2 °F 100% 30.01 in 10.0 mi Calm Calm - 0.00 in   Clear
1:15 AM 66.2 °F - 66.2 °F 100% 30.01 in 10.0 mi South 5.8 mph - 0.00 in   Clear
1:35 AM 66.2 °F - 66.2 °F 100% 30.01 in 10.0 mi Calm Calm - 0.00 in   Clear
1:55 AM 66.2 °F - 66.2 °F 100% 30.01 in 10.0 mi Calm Calm - 0.00 in   Clear
2:15 AM 66.2 °F - 66.2 °F 100% 30.01 in 10.0 mi Calm Calm - 0.00 in   Clear
2:35 AM 64.4 °F - 64.4 °F 100% 30.01 in 10.0 mi Calm Calm - 0.00 in   Clear
2:55 AM 64.4 °F - 64.4 °F 100% 30.02 in 10.0 mi Calm Calm - 0.00 in   Clear
3:15 AM 64.4 °F - 64.4 °F 100% 30.02 in 10.0 mi Calm Calm - 0.00 in   Clear
3:35 AM 64.4 °F - 64.4 °F 100% 30.02 in 10.0 mi Calm Calm - 0.00 in   Clear
3:55 AM 64.4 °F - 64.4 °F 100% 30.03 in 10.0 mi Calm Calm - 0.00 in   Clear
4:15 AM 64.4 °F - 64.4 °F 100% 30.03 in 10.0 mi Calm Calm - 0.00 in   Clear
4:35 AM 64.4 °F - 64.4 °F 100% 30.03 in 10.0 mi Calm Calm - 0.00 in   Mostly Cloudy
4:55 AM 64.4 °F - 64.4 °F 100% 30.04 in 6.0 mi Calm Calm - 0.00 in   Mostly Cloudy
5:15 AM 64.4 °F - 64.4 °F 100% 30.04 in 10.0 mi Calm Calm - 0.00 in   Mostly Cloudy
5:35 AM 62.6 °F - 62.6 °F 100% 30.05 in 7.0 mi Calm Calm - 0.00 in   Partly Cloudy
5:55 AM 62.6 °F - 62.6 °F 100% 30.06 in 7.0 mi Calm Calm - 0.00 in   Scattered Clouds
6:45 AM 64.4 °F - 64.4 °F 100% 30.06 in 5.0 mi Calm Calm - N/A   Scattered Clouds
7:20 AM 62.6 °F - 62.6 °F 100% 30.07 in 5.0 mi Calm Calm - N/A   Mostly Cloudy
7:45 AM 64.4 °F - 64.4 °F 100% 30.09 in 5.0 mi Calm Calm - N/A   Mostly Cloudy
8:36 AM 66.2 °F - 66.2 °F 100% 30.10 in 5.0 mi Calm Calm - N/A   Mostly Cloudy
8:50 AM 66.2 °F - 66.2 °F 100% 30.10 in 5.0 mi Calm Calm - N/A   Mostly Cloudy
9:23 AM 69.8 °F - 69.8 °F 100% 30.11 in 10.0 mi Calm Calm - N/A   Mostly Cloudy
10:45 AM 71.6 °F - 66.2 °F 83% 30.13 in 10.0 mi Calm Calm - N/A   Mostly Cloudy
11:45 AM 75.2 °F - 62.6 °F 65% 30.13 in 10.0 mi Calm Calm - N/A   Scattered Clouds
12:50 PM 78.8 °F - 62.6 °F 57% 30.12 in 10.0 mi SSW 5.8 mph - N/A   Scattered Clouds
1:50 PM 78.8 °F - 60.8 °F 54% 30.12 in 20.0 mi WSW 5.8 mph - N/A   Scattered Clouds
2:50 PM 78.8 °F - 64.4 °F 61% 30.11 in 20.0 mi Calm Calm - N/A   Scattered Clouds
3:50 PM 80.6 °F 81.8 °F 62.6 °F 54% 30.10 in 20.0 mi Calm Calm - N/A   Scattered Clouds
4:50 PM 80.6 °F 81.8 °F 62.6 °F 54% 30.10 in 20.0 mi Calm Calm - N/A   Scattered Clouds
5:50 PM 80.6 °F 81.8 °F 62.6 °F 54% 30.10 in 20.0 mi Calm Calm - N/A   Scattered Clouds
6:50 PM 78.8 °F - 64.4 °F 61% 30.10 in 20.0 mi Calm Calm - N/A   Partly Cloudy
7:50 PM 73.4 °F - 66.2 °F 78% 30.10 in 20.0 mi Calm Calm - N/A   Partly Cloudy
8:50 PM 69.8 °F - 66.2 °F 88% 30.11 in 15.0 mi Calm Calm - N/A   Partly Cloudy
9:50 PM 66.2 °F - 66.2 °F 100% 30.13 in 15.0 mi Calm Calm - N/A   Clear
10:15 PM 66.2 °F - 66.2 °F 100% 30.14 in 10.0 mi Calm Calm - 0.00 in   Clear
10:35 PM 64.4 °F - 64.4 °F 100% 30.14 in 9.0 mi Calm Calm - 0.00 in   Clear
10:55 PM 64.4 °F - 64.4 °F 100% 30.14 in 10.0 mi Calm Calm - 0.00 in   Clear
11:15 PM 64.4 °F - 64.4 °F 100% 30.15 in 10.0 mi Calm Calm - 0.00 in   Clear
11:55 PM 64.4 °F - 64.4 °F 100% 30.15 in 10.0 mi Calm Calm - 0.00 in   Clear